This demonstration page uses our WeatherBlox Daily Observations layout. Learn more.

41.55636, -103.73856

Hourly Observations for September 16, 2019

Temp ( °F °C ) Dew Point ( °F °C ) Humidity (%) Winds ( mph kmh ) Pressure ( in mb ) Visibility ( mi km ) Precip ( " mm )
12:58 am 00:58 Clear 75 24.1 46 7.6 35 35 S 13 20 29.86 1011 10 16.0934 0 0
1:58 am 01:58 Clear 76 24.2 48 8.7 37 37 SSE 14 22 29.86 1011 10 16.0934 0 0
2:58 am 02:58 Clear 73 22.5 43 6.1 35 35 S 17 28 29.85 1011 10 16.0934 0 0
3:58 am 03:58 Mostly Cloudy 71 21.8 41 5 34 34 S 20 31 29.84 1011 10 16.0934 0 0
4:58 am 04:58 Mostly Clear 71 21.8 41 5.2 34 34 S 21 33 29.83 1010 10 16.0934 0 0
5:58 am 05:58 Partly Cloudy 72 22.1 44 6.6 37 37 S 18 30 29.81 1009 10 16.0934 0 0
6:58 am 06:58 Mostly Cloudy 71 21.6 44 6.8 38 38 SSW 17 28 29.8 1009 10 16.0934 0 0
7:58 am 07:58 Mostly Cloudy 64 17.7 47 8.3 54 54 NNW 9 15 29.83 1010 10 16.0934 0 0
8:58 am 08:58 Cloudy 64 17.6 47 8.5 55 55 S 5 7 29.83 1010 10 16.0934 0 0
9:58 am 09:58 Partly Cloudy 59 14.8 48 8.7 67 67 SSW 6 9 29.85 1011 10 16.0934 0 0
10:58 am 10:58 Mostly Cloudy 58 14.7 47 8.2 65 65 S 8 13 29.83 1010 10 16.0934 0 0
11:58 am 11:58 Mostly Cloudy 65 18.1 46 7.9 52 52 NNW 9 15 29.81 1010 10 16.0934 0 0
12:58 pm 12:58 Sunny 58 14.6 44 6.7 59 59 Calm 29.85 1011 10 16.0934 0 0
1:58 pm 13:58 Mostly Sunny 61 16.2 49 9.3 64 64 ESE 3 6 29.84 1010 10 16.0934 0 0
2:58 pm 14:58 Partly Cloudy 65 18.6 51 10.5 59 59 Calm 29.83 1010 10 16.0934 0 0
3:58 pm 15:58 Sunny 67 19.6 51 10.7 57 57 Calm 29.83 1010 10 16.0934 0 0
5:56 pm 17:56 Sunny 77 25.1 41 4.9 27 27 ENE 3 6 29.78 1009 10 16.0934 0 0
6:58 pm 18:58 Sunny 81 27 38 3.6 22 22 WNW 5 7 29.75 1008 10 16.0934 0 0
7:58 pm 19:58 Sunny 83 28.6 39 3.9 21 21 N 6 9 29.75 1007 10 16.0934 0 0
8:58 pm 20:58 Sunny 85 29.7 39 4.1 20 20 ENE 6 9 29.74 1007 10 16.0934 0 0
9:58 pm 21:58 Sunny 86 30 36 2.3 17 17 ENE 3 6 29.74 1007 10 16.0934 0 0
10:58 pm 22:58 Sunny 85 29.5 36 2.4 18 18 Calm 29.73 1007 10 16.0934 0 0
11:58 pm 23:58 Partly Cloudy 80 26.7 44 6.6 28 28 ESE 7 11 29.73 1007 10 16.0934 0 0

Powered by AerisWeather